Tracking 20093 objects as of 15-Dec-2019
HD Live streaming from Space Station
objects crossing your sky now

MINOTAUR 4 R/B

Track MINOTAUR 4 R/B now!
10-day predictions


NORAD ID: 37228
Int'l Code: 2010-062G
Perigee: 635.1 km
Apogee: 643.5 km
Inclination: 72.0 °
Period: 97.4 minutes
Semi major axis: 7010 km
RCS: Unknown
Launch date: November 20, 2010
Source: United States (US)
Launch site: Kodiak Island, Alaska (KODAK)

Note: This is a ROCKET BODY
aabbcc
Your satellite tracking list
Your tracking list is empty




NASA's NSSDC Master Catalog

Two Line Element Set (TLE):
1 37228U 10062G   19316.20537228 0.00000100  00000-0  13484-4 0    08
2 37228  71.9616  94.5312 0005996 288.2881  71.7118 14.79092022    05
Source of the keplerian elements: McCants